Regional Weather Roundup
Issued by NWS

Home | Current Version | Previous Version | Text Only | Print | Product List | Glossary On
Versions: 1 2 3 4 5 6 7 8 9 10 11 12 13 14 15 16 17 18 19 20 21 22 23 24 25 26 27 28 29 30 31 32 33 34 35 36 37 38 39 40 41 42 43 44 45 46 47 48 49 50
000
ASUS43 KFSD 191510
RWRSD

WEATHER ROUNDUP FOR SOUTH DAKOTA
NATIONAL WEATHER SERVICE SIOUX FALLS SD
900 AM CST FRI DEC 19 2014

NOTE: "FAIR" INDICATES FEW OR NO CLOUDS BELOW 12,000 FEET WITH NO
SIGNIFICANT WEATHER AND/OR OBSTRUCTIONS TO VISIBILITY.


SDZ001>005-009-010-012>017-191600-
NORTHWEST AND NORTH CENTRAL SOUTH DAKOTA

CITY           SKY/WX    TMP DP  RH WIND       PRES   REMARKS
BUFFALO          N/A     29  20  69 W7        29.88S WCI  22
FAITH            N/A     27  21  78 W9        29.96S WCI  18
MOBRIDGE       MOCLDY    21  18  88 SE8       29.96F FOG     WCI  11
$$

SDZ012>016-024>037-041>051-057-063-072>074-191600-
SOUTHWEST AND SOUTH CENTRAL SOUTH DAKOTA

CITY           SKY/WX    TMP DP  RH WIND       PRES   REMARKS
RAPID CTY ARPT PTCLDY    23  16  74 CALM      29.97F
PIERRE         FOG       18  14  84 S3        30.02S VSB 1
CUSTER         CLEAR     22  13  68 NW5       29.96F WCI  16
ELLSWORTH AFB  PTCLDY    27  18  69 W7        29.97S WCI  19
PHILIP         MOCLDY    25  20  81 W10       30.00F WCI  15
PINE RIDGE     CLEAR     26  16  65 W7        30.02S WCI  18
SPEARFISH      FAIR      32  18  55 CALM      29.97F
WINNER         FAIR      24  16  71 S6        30.03S WCI  17
$$

SDZ004>011-016>023-039-040-191600-
NORTHEAST SOUTH DAKOTA

CITY           SKY/WX    TMP DP  RH WIND       PRES   REMARKS
ABERDEEN       CLOUDY    28  25  88 S16       30.06S FOG     WCI  16
WATERTOWN      CLOUDY    27  25  92 S14G23    30.07S FOG     WCI  16
SISSETON         N/A     28  26  92 S10       30.08F WCI  19
$$

SDZ017-020-022-023-036>040-048>070-191600-
SOUTHEAST SOUTH DAKOTA

CITY           SKY/WX    TMP DP  RH WIND       PRES   REMARKS
SIOUX FALLS    CLOUDY    29  26  89 S12       30.15R WCI  19
HURON          CLOUDY    28  26  92 S14       30.09S FOG     WCI  17
CHAMBERLAIN    PTCLDY    15  13  92 SE3       30.05S
MITCHELL       CLOUDY    29  27  92 S8        30.12S FOG     WCI  21
YANKTON        CLOUDY    30  27  86 S12       30.16S WCI  21
$$

ABBREVIATIONS USED IN REMARKS
   TC - TEMPERATURE IN CELSIUS
  WCI - WIND CHILL INDEX
   HX - HEAT INDEX
  VSB - VISIBILITY




USA.gov is the U.S. government's official web portal to all federal, state and local government web resources and services.